• MPC Preparation (Info)

  • MPEC 2023-U06 : 2023 TO15

    The following Minor Planet Electronic Circular may be linked-to from your own Web pages, but must not otherwise be redistributed electronically.

    A form allowing access to any MPEC is at the bottom of this page.


    Read MPEC 2023-U05 Read MPEC 2023-U07


    M.P.E.C. 2023-U06                              Issued 2023 October 16, 13:21 UT
    
         The Minor Planet Electronic Circulars contain information on unusual
             minor planets, routine data on comets and natural satellites,
             and occasional editorial announcements.  They are published
        on behalf of Division F of the International Astronomical Union by the
              Minor Planet Center, Smithsonian Astrophysical Observatory,
                              Cambridge, MA 02138, U.S.A.
    			  
                 Prepared using the Tamkin Foundation Computer Network
    
                                  MPC@CFA.HARVARD.EDU
                URL https://www.minorplanetcenter.net/    ISSN 1523-6714
    
                                    2023 TO15                                
    
    
    Observations:
         K23T15O* C2023 10 14.29742501 00 00.412+33 05 30.99         21.59wXEU006F52
         K23T15O  C2023 10 14.30900001 00 01.945+33 05 35.17         21.50wXEU006F52
         K23T15O  C2023 10 14.33212801 00 04.967+33 05 43.27         21.76wXEU006F52
         K23T15O KC2023 10 14.41325601 00 12.733+33 05 48.48         21.05GVEU006I52
         K23T15O KC2023 10 14.42499301 00 14.368+33 05 50.35         21.38GVEU006I52
         K23T15O KC2023 10 14.43082201 00 15.156+33 05 50.50         22.21GVEU006I52
         K23T15O  C2023 10 14.45415201 00 20.585+33 06 16.69         21.47GVEU006F52
         K23T15O  C2023 10 14.45479001 00 20.670+33 06 16.91         21.48GVEU006F52
         K23T15O KC2023 10 15.15831701 02 16.152+33 08 41.89         21.47GVEU006I52
         K23T15O KC2023 10 15.16141701 02 16.588+33 08 43.44         21.30GVEU006I52
         K23T15O KC2023 10 15.16450401 02 17.149+33 08 44.27         20.93GVEU006I52
         K23T15O KC2023 10 15.16909701 02 17.790+33 08 46.14         21.32GVEU006I52
         K23T15O 3C2023 10 15.23001501 02 29.089+33 09 00.90         21.37GVEU006T14
         K23T15O 3C2023 10 15.23099201 02 29.239+33 09 01.27         21.24GVEU006T14
         K23T15O 3C2023 10 15.23196901 02 29.391+33 09 01.64         21.24GVEU006T14
         K23T15O KC2023 10 16.18194701 05 12.548+33 11 57.34         21.38GVEU006I52
         K23T15O KC2023 10 16.18482801 05 13.060+33 11 59.42         21.19GVEU006I52
         K23T15O KC2023 10 16.18770801 05 13.474+33 11 59.06         20.64GVEU006I52
         K23T15O KC2023 10 16.19057901 05 13.938+33 11 59.86         22.08GVEU006I52
    
    Observer details:
    F52 Pan-STARRS 2, Haleakala.  Observers J. Bulger, T. Lowe, P. Minguez, A.
        Schultz, I. Smith.  Measurers K. Chambers, T. de Boer, J. Fairlamb, H.
        Gao, M. Huber, C.-C. Lin, E. Magnier, Y. Ramanjooloo, R. Wainscoat, R.
        Weryk.  1.8-m Ritchey-Chretien + CCD.
    I52 Steward Observatory, Mt. Lemmon Station.  Observer J. K. Hogan.  Measurers
        E. C. Beshore, D. Fay, J. B. Fazekas, D. C. Fuls, A. R. Gibbs, A. D.
        Grauer, H. Groeller, J. K. Hogan, R. A. Kowalski, S. M. Larson, G. J.
        Leonard, D. Rankin, R. L. Seaman, F. C. Shelly, K. W. Wierzchos.  1.0-m
        prime focus + CCD.
    T14 Canada-France-Hawaii Telescope, Maunakea.  Observers R. Wainscoat, H.
        Januszewski, T. Burdullis.  Measurers R. Weryk, R. Wainscoat.  3.6-m
        Canada-France-Hawaii Telescope + CCD.
    
    Orbital elements:
    2023 TO15                                                Earth MOID = 0.0264 AU
    Epoch 2023 Sept. 13.0 TT = JDT 2460200.5                Veres                   
    M 334.43113              (2000.0)            P               Q                  
    n   0.31474590     Peri.  217.87456     +0.20125483     -0.97298473             
    a   2.1404052      Node   220.86870     +0.93563828     +0.22513526             
    e   0.5532734      Incl.    9.95572     +0.28996120     -0.05113542             
    P   3.13           H   24.31          G   0.15           U   9                  
    Residuals in seconds of arc
    231014 F52  0.2+  0.1+    231014 F52  0.0   0.1+    231015 T14  0.0   0.0
    231014 F52  0.2+  0.1+    231015 I52  0.3-  0.3-    231016 I52  0.1-  0.6-
    231014 F52  0.2+  0.0     231015 I52  0.6-  0.3+    231016 I52  0.5+  0.7+
    231014 I52  0.1-  0.4-    231015 I52  0.8+  0.1+    231016 I52  0.2-  0.4-
    231014 I52  0.2+  0.1-    231015 I52  0.3+  0.4+    231016 I52  0.2-  0.4-
    231014 I52  0.1-  0.7-    231015 T14  0.0   0.0
    231014 F52  0.0   0.0     231015 T14  0.0   0.0
    
    Ephemeris:
    2023 TO15                a,e,i = 2.14, 0.55, 10                  q = 0.9562
    Date    TT    R. A. (2000) Decl.     Delta      r    Elong.  Phase     V
    2023 09 16    00 29 08.5 +28 29 29   0.3971  1.3525   145.8    24.7    24.1
    ...
    2023 10 01    00 39 34.9 +31 23 54   0.2643  1.2397   151.3    22.8    23.0
    ...
    2023 10 09    00 49 18.0 +32 34 09   0.2016  1.1828   153.3    22.3    22.3
    ...
    2023 10 15    01 01 47.5 +33 08 14   0.1579  1.1423   154.8    21.8    21.6
    2023 10 16    01 04 37.3 +33 11 32   0.1508  1.1357   155.1    21.7    21.5
    2023 10 17    01 07 44.6 +33 13 55   0.1439  1.1293   155.4    21.6    21.4
    ...
    2023 10 23    01 35 26.4 +32 57 37   0.1039  1.0922   158.0    20.0    20.6
    ...
    2023 10 31    03 06 15.3 +27 52 21   0.05747 1.0478   162.1    16.9    19.1
    ...
    2023 11 15    09 09 14.6 -24 39 19   0.06738 0.9852    84.5    91.6    21.7
    
    M. P. C. Staff               (C) Copyright 2023 MPC           M.P.E.C. 2023-U06
    


    Read MPEC 2023-U05 Read MPEC 2023-U07


    MPEC number:

    Enter an MPEC number in one of the following forms:

    • 1997-B01 (the full form)
    • J97B01 (the packed version of the full form)
    • B01 (the abbreviated form)